Tracking 28794 objects as of 22-Apr-2024
HD Live streaming from Space Station
objects crossing your sky now

GAOFEN 9 03

Track GAOFEN 9 03 now!
10-day predictions


NORAD ID: 45794
Int'l Code: 2020-039A
Perigee: 492.5 km
Apogee: 509.0 km
Inclination: 97.5 °
Period: 94.5 minutes
Semi major axis: 6871 km
RCS: Unknown
Launch date: June 17, 2020
Source: People's Republic of China (PRC)
Launch site: Jiuquan Satellite Launch Center, China (JSC)
Your satellite tracking list
Your tracking list is empty




NASA's NSSDC Master Catalog

Two Line Element Set (TLE):
1 45794U 20039A   24112.84297818  .00021400  00000-0  88150-3 0  9992
2 45794  97.4513 234.0542 0011956 336.0974  23.9706 15.24058148213858
Source of the keplerian elements: AFSPC